FDX618 YSSY-YBBN

Flight info

Callsign FDX618
Flight time 1h 5m
Altitude 35000
Route RIC6/34L 3358S15112E OLSEM Y193 BANDA H252
Aircraft B77L/H-SDE1E2E3FGHIJ2J3J4J5M1RWXY/LB1D1

Departure

Time 2026-05-04 06:09
Airport Sydney Kingsford Smith International Airport (YSSY)

Arrival

Time 2026-05-04 07:14
Airport Brisbane International Airport (YBBN)
Time Latitude Longitude Altitude Speed Heading
2026-05-04 05:28 -33.93174 151.16806 31 ft 0 kts 258°
2026-05-04 05:52 -33.93173 151.16808 31 ft 1 kts 258°
2026-05-04 05:52 -33.93170 151.16824 31 ft 2 kts 258°
2026-05-04 05:52 -33.93167 151.16838 31 ft 0 kts 258°
2026-05-04 05:52 -33.93164 151.16853 31 ft 2 kts 250°
2026-05-04 05:53 -33.93158 151.16870 31 ft 2 kts 237°
2026-05-04 05:54 -33.93073 151.16914 31 ft 1 kts 167°
2026-05-04 05:55 -33.93072 151.16914 31 ft 0 kts 167°
2026-05-04 05:58 -33.93084 151.16917 31 ft 2 kts 167°
2026-05-04 05:59 -33.93111 151.16925 31 ft 5 kts 169°
2026-05-04 05:59 -33.93151 151.16933 31 ft 6 kts 171°
2026-05-04 05:59 -33.93206 151.16946 31 ft 11 kts 166°
2026-05-04 05:59 -33.93290 151.17003 31 ft 15 kts 137°
2026-05-04 06:00 -33.93389 151.17070 30 ft 17 kts 163°
2026-05-04 06:00 -33.93511 151.17105 29 ft 17 kts 167°
2026-05-04 06:00 -33.93634 151.17139 26 ft 18 kts 167°
2026-05-04 06:00 -33.93757 151.17172 25 ft 18 kts 167°
2026-05-04 06:01 -33.93879 151.17206 24 ft 17 kts 167°
2026-05-04 06:01 -33.93990 151.17235 25 ft 15 kts 169°
2026-05-04 06:03 -33.94825 151.17450 25 ft 16 kts 167°
2026-05-04 06:03 -33.94941 151.17482 25 ft 16 kts 167°
2026-05-04 06:05 -33.95865 151.17715 22 ft 20 kts 168°
2026-05-04 06:05 -33.96128 151.17784 22 ft 18 kts 168°
2026-05-04 06:05 -33.96248 151.17816 22 ft 16 kts 168°
2026-05-04 06:06 -33.96359 151.17844 21 ft 16 kts 168°
2026-05-04 06:06 -33.96429 151.17899 21 ft 2 kts 114°
2026-05-04 06:06 -33.96433 151.17912 21 ft 2 kts 105°
2026-05-04 06:06 -33.96434 151.17943 21 ft 6 kts 89°
2026-05-04 06:07 -33.96427 151.18001 21 ft 6 kts 77°
2026-05-04 06:07 -33.96402 151.18051 22 ft 7 kts 25°
2026-05-04 06:07 -33.96378 151.18053 22 ft 0 kts 348°
2026-05-04 06:08 -33.96368 151.18051 22 ft 15 kts 349°
2026-05-04 06:08 -33.95961 151.17947 22 ft 104 kts 347°
2026-05-04 06:08 -33.94972 151.17696 94 ft 177 kts 351°
2026-05-04 06:09 -33.93766 151.17400 1136 ft 177 kts 349°
2026-05-04 06:09 -33.92650 151.17067 2283 ft 166 kts 338°
2026-05-04 06:11 -33.84293 151.09984 6001 ft 261 kts 342°
2026-05-04 06:11 -33.82614 151.09439 7439 ft 251 kts 342°
2026-05-04 06:13 -33.72126 151.17310 12867 ft 368 kts 59°
2026-05-04 06:14 -33.64784 151.35269 18131 ft 417 kts 59°
2026-05-04 06:14 -33.63504 151.38391 18967 ft 424 kts 59°
2026-05-04 06:15 -33.62194 151.41585 19775 ft 431 kts 59°
2026-05-04 06:15 -33.60871 151.44810 20576 ft 438 kts 59°
2026-05-04 06:15 -33.59504 151.48140 21373 ft 445 kts 59°
2026-05-04 06:15 -33.58142 151.51454 22180 ft 450 kts 59°
2026-05-04 06:16 -33.56764 151.54807 22945 ft 455 kts 59°
2026-05-04 06:16 -33.55357 151.58223 23633 ft 462 kts 58°
2026-05-04 06:16 -33.53933 151.61681 24387 ft 467 kts 58°
2026-05-04 06:16 -33.52370 151.65106 25123 ft 467 kts 51°
2026-05-04 06:17 -33.50413 151.68188 25680 ft 468 kts 41°
2026-05-04 06:17 -33.48046 151.70872 26287 ft 467 kts 32°
2026-05-04 06:17 -33.45398 151.73022 26985 ft 463 kts 22°
2026-05-04 06:17 -33.42484 151.74648 27770 ft 458 kts 13°
2026-05-04 06:18 -33.39457 151.75768 28513 ft 457 kts
2026-05-04 06:18 -33.36400 151.76769 29289 ft 460 kts
2026-05-04 06:18 -33.33305 151.77774 30137 ft 460 kts
2026-05-04 06:20 -33.11903 151.84682 34924 ft 455 kts
2026-05-04 06:21 -32.96563 151.89607 35004 ft 451 kts
2026-05-04 06:22 -32.90455 151.91562 35010 ft 452 kts
2026-05-04 06:25 -32.47886 152.05115 35014 ft 452 kts
2026-05-04 06:26 -32.41827 152.07034 35013 ft 450 kts
2026-05-04 06:26 -32.35754 152.08952 35021 ft 453 kts
2026-05-04 06:27 -32.20536 152.13753 35018 ft 452 kts
2026-05-04 06:28 -32.14494 152.15654 35026 ft 452 kts
2026-05-04 06:28 -32.08393 152.17570 35021 ft 452 kts
2026-05-04 06:29 -32.02271 152.19492 35022 ft 451 kts
2026-05-04 06:29 -31.96182 152.21397 35025 ft 454 kts
2026-05-04 06:30 -31.90085 152.23305 35028 ft 454 kts
2026-05-04 06:30 -31.83952 152.25223 35044 ft 453 kts
2026-05-04 06:31 -31.77879 152.27118 35059 ft 456 kts
2026-05-04 06:31 -31.71674 152.29051 35052 ft 454 kts
2026-05-04 06:33 -31.47158 152.36665 35064 ft 455 kts
2026-05-04 06:34 -31.40984 152.38573 35062 ft 459 kts
2026-05-04 06:34 -31.34842 152.40472 35070 ft 459 kts
2026-05-04 06:36 -31.10082 152.48099 35060 ft 460 kts
2026-05-04 06:37 -31.03907 152.49995 35066 ft 460 kts
2026-05-04 06:37 -30.97724 152.51889 35068 ft 462 kts
2026-05-04 06:38 -30.91505 152.53795 35064 ft 461 kts
2026-05-04 06:40 -30.66617 152.62135 35070 ft 470 kts
2026-05-04 06:40 -30.60383 152.64414 35073 ft 466 kts
2026-05-04 06:41 -30.54197 152.66658 35046 ft 468 kts
2026-05-04 06:41 -30.47998 152.68903 35052 ft 468 kts
2026-05-04 06:42 -30.41758 152.71156 35056 ft 469 kts
2026-05-04 06:44 -30.16879 152.80107 35073 ft 472 kts
2026-05-04 06:44 -30.10619 152.82353 35066 ft 469 kts
2026-05-04 06:45 -30.04357 152.84596 35063 ft 469 kts
2026-05-04 06:45 -29.98113 152.86829 35057 ft 469 kts
2026-05-04 06:46 -29.91880 152.89052 35052 ft 473 kts
2026-05-04 06:46 -29.85622 152.91286 35059 ft 471 kts
2026-05-04 06:48 -29.60491 153.00218 35046 ft 472 kts
2026-05-04 06:50 -29.35274 153.09135 35045 ft 471 kts
2026-05-04 06:51 -29.28980 153.11232 35042 ft 466 kts 359°
2026-05-04 06:51 -29.22622 153.12062 34855 ft 455 kts 354°
2026-05-04 06:52 -29.19470 153.12375 34082 ft 456 kts 354°
2026-05-04 06:52 -29.16305 153.12686 33240 ft 459 kts 354°
2026-05-04 06:52 -29.13125 153.12999 32497 ft 460 kts 354°
2026-05-04 06:52 -29.09939 153.13315 31741 ft 462 kts 355°
2026-05-04 06:53 -29.06699 153.13635 30958 ft 463 kts 355°
2026-05-04 06:53 -29.03527 153.13951 30421 ft 458 kts 356°
2026-05-04 06:53 -29.00370 153.14267 29978 ft 451 kts 356°
2026-05-04 06:53 -28.97226 153.14580 29521 ft 445 kts 356°
2026-05-04 06:54 -28.94176 153.14883 29024 ft 440 kts 356°
2026-05-04 06:54 -28.91150 153.15183 28529 ft 436 kts 357°
2026-05-04 06:54 -28.88106 153.15485 28045 ft 431 kts 357°
2026-05-04 06:54 -28.85167 153.15775 27563 ft 426 kts 357°
2026-05-04 06:55 -28.82218 153.16066 27075 ft 422 kts 357°
2026-05-04 06:55 -28.79302 153.16353 26578 ft 418 kts 358°
2026-05-04 06:55 -28.76426 153.16637 26095 ft 415 kts 358°
2026-05-04 06:55 -28.73487 153.16922 25582 ft 428 kts 358°
2026-05-04 06:56 -28.70542 153.17209 25056 ft 429 kts 358°
2026-05-04 06:57 -28.50343 153.19200 21434 ft 404 kts
2026-05-04 06:58 -28.47536 153.19475 20904 ft 401 kts
2026-05-04 06:58 -28.44790 153.19745 20396 ft 397 kts
2026-05-04 06:58 -28.42028 153.20015 19877 ft 394 kts
2026-05-04 06:58 -28.39332 153.20279 19361 ft 391 kts
2026-05-04 06:59 -28.36620 153.20544 18853 ft 388 kts
2026-05-04 06:59 -28.33922 153.20808 18342 ft 385 kts
2026-05-04 06:59 -28.31273 153.21068 17825 ft 383 kts
2026-05-04 06:59 -28.28598 153.21329 17312 ft 380 kts
2026-05-04 07:01 -28.10583 153.22812 13747 ft 363 kts
2026-05-04 07:01 -28.08054 153.22978 13235 ft 362 kts
2026-05-04 07:02 -28.05549 153.23145 12741 ft 360 kts
2026-05-04 07:02 -28.03054 153.23312 12243 ft 358 kts
2026-05-04 07:02 -28.00550 153.23480 11729 ft 356 kts
2026-05-04 07:02 -27.98097 153.23644 11229 ft 355 kts
2026-05-04 07:03 -27.95641 153.23810 10766 ft 351 kts
2026-05-04 07:03 -27.93264 153.23970 10671 ft 337 kts
2026-05-04 07:03 -27.90957 153.24124 10573 ft 323 kts
2026-05-04 07:03 -27.88741 153.24274 10455 ft 311 kts
2026-05-04 07:04 -27.86610 153.24374 10285 ft 302 kts 355°
2026-05-04 07:04 -27.84623 153.23773 10120 ft 291 kts 333°
2026-05-04 07:04 -27.82937 153.22623 9997 ft 281 kts 326°
2026-05-04 07:04 -27.81348 153.21347 9761 ft 277 kts 324°
2026-05-04 07:05 -27.79812 153.20061 9381 ft 278 kts 324°
2026-05-04 07:05 -27.78281 153.18687 9005 ft 278 kts 315°
2026-05-04 07:05 -27.77027 153.17044 8732 ft 276 kts 309°
2026-05-04 07:05 -27.75867 153.15356 8484 ft 272 kts 308°
2026-05-04 07:06 -27.73459 153.12067 7982 ft 272 kts 313°
2026-05-04 07:06 -27.72187 153.10489 7720 ft 271 kts 313°
2026-05-04 07:06 -27.70915 153.08891 7473 ft 270 kts 313°
2026-05-04 07:07 -27.69671 153.07317 7224 ft 270 kts 312°
2026-05-04 07:08 -27.59767 152.98726 5463 ft 252 kts
2026-05-04 07:09 -27.58152 152.99333 5253 ft 233 kts 28°
2026-05-04 07:09 -27.56760 153.00142 5040 ft 216 kts 30°
2026-05-04 07:09 -27.55477 153.00897 4792 ft 203 kts 29°
2026-05-04 07:09 -27.54243 153.01611 4503 ft 196 kts 29°
2026-05-04 07:10 -27.53023 153.02309 4239 ft 195 kts 29°
2026-05-04 07:10 -27.51842 153.02982 3978 ft 186 kts 29°
2026-05-04 07:12 -27.44032 153.07426 1242 ft 163 kts 30°
2026-05-04 07:12 -27.43035 153.07915 982 ft 151 kts 27°
2026-05-04 07:12 -27.42113 153.08415 733 ft 144 kts 31°
2026-05-04 07:12 -27.41228 153.08942 579 ft 143 kts 31°
2026-05-04 07:13 -27.40339 153.09462 436 ft 143 kts 31°
2026-05-04 07:13 -27.39454 153.09967 291 ft 143 kts 30°
2026-05-04 07:13 -27.38580 153.10509 139 ft 144 kts 30°
2026-05-04 07:14 -27.36234 153.11873 27 ft 21 kts 47°
2026-05-04 07:14 -27.36222 153.11989 27 ft 11 kts 119°
2026-05-04 07:15 -27.36238 153.12022 27 ft 2 kts 115°
2026-05-04 07:15 -27.36247 153.12044 27 ft 2 kts 115°
2026-05-04 07:15 -27.36255 153.12064 27 ft 2 kts 115°
2026-05-04 07:15 -27.36264 153.12085 27 ft 2 kts 115°
2026-05-04 07:16 -27.36284 153.12115 27 ft 7 kts 146°
2026-05-04 07:16 -27.36348 153.12118 27 ft 11 kts 196°
2026-05-04 07:16 -27.36437 153.12073 27 ft 16 kts 207°
2026-05-04 07:16 -27.36543 153.12010 27 ft 18 kts 208°
2026-05-04 07:17 -27.36662 153.11946 27 ft 19 kts 206°
2026-05-04 07:17 -27.36786 153.11873 27 ft 20 kts 208°
2026-05-04 07:17 -27.36919 153.11797 27 ft 22 kts 207°
2026-05-04 07:17 -27.37059 153.11714 27 ft 23 kts 208°
2026-05-04 07:18 -27.37189 153.11638 27 ft 18 kts 204°
2026-05-04 07:18 -27.37317 153.11632 27 ft 19 kts 145°
2026-05-04 07:18 -27.37384 153.11763 27 ft 19 kts 118°
2026-05-04 07:18 -27.37458 153.11893 27 ft 19 kts 116°
2026-05-04 07:19 -27.37514 153.12022 27 ft 17 kts 117°
2026-05-04 07:19 -27.37569 153.12141 27 ft 17 kts 117°
2026-05-04 07:19 -27.37622 153.12265 27 ft 18 kts 116°
2026-05-04 07:19 -27.37678 153.12395 27 ft 18 kts 116°
2026-05-04 07:20 -27.37738 153.12526 27 ft 19 kts 118°
2026-05-04 07:20 -27.37801 153.12657 27 ft 17 kts 117°
2026-05-04 07:20 -27.37851 153.12766 27 ft 9 kts 121°
2026-05-04 07:20 -27.37915 153.12797 27 ft 14 kts 188°
2026-05-04 07:22 -27.38657 153.12383 27 ft 13 kts 206°
2026-05-04 07:22 -27.38739 153.12338 27 ft 12 kts 206°
2026-05-04 07:23 -27.38817 153.12291 27 ft 13 kts 208°
2026-05-04 07:23 -27.38917 153.12238 27 ft 15 kts 205°
2026-05-04 07:23 -27.39008 153.12183 27 ft 11 kts 211°
2026-05-04 07:23 -27.39034 153.12106 27 ft 10 kts 284°
2026-05-04 07:24 -27.39009 153.12035 27 ft 7 kts 275°
2026-05-04 07:24 -27.39029 153.11993 27 ft 3 kts 220°
2026-05-04 07:24 -27.39048 153.11978 27 ft 3 kts 208°
2026-05-04 07:24 -27.39062 153.11969 27 ft 0 kts 207°